ITY736 LIRN-LIRF

Flight info

Callsign ITY736
Flight time N/A
Altitude 18000
Route SIPRO7J SIPRO Z803 LAT LAT3A
Aircraft A20N/M-SDE2E3FGHIRWXY/LB1

Departure

Time 2026-04-27 15:52
Airport Naples International Airport (LIRN)

Arrival

Time N/A
Airport Rome–Fiumicino Leonardo da Vinci International Airport (LIRF)
Time Latitude Longitude Altitude Speed Heading
2026-04-27 15:37 40.87867 14.28132 301 ft 0 kts 141°
2026-04-27 15:45 40.87873 14.28125 300 ft 4 kts 141°
2026-04-27 15:45 40.87894 14.28103 299 ft 4 kts 141°
2026-04-27 15:45 40.87910 14.28085 302 ft 4 kts 129°
2026-04-27 15:45 40.87919 14.28059 300 ft 4 kts 65°
2026-04-27 15:46 40.87905 14.28033 303 ft 3 kts 51°
2026-04-27 15:46 40.87903 14.28030 303 ft 0 kts 51°
2026-04-27 15:48 40.87940 14.28089 301 ft 15 kts 50°
2026-04-27 15:48 40.88020 14.28146 297 ft 14 kts 40°
2026-04-27 15:49 40.88055 14.28407 294 ft 17 kts 97°
2026-04-27 15:49 40.88041 14.28569 287 ft 18 kts 85°
2026-04-27 15:49 40.88112 14.28722 284 ft 22 kts 52°
2026-04-27 15:49 40.88211 14.28893 279 ft 24 kts 53°
2026-04-27 15:50 40.88319 14.29080 275 ft 27 kts 53°
2026-04-27 15:50 40.88436 14.29283 269 ft 29 kts 53°
2026-04-27 15:50 40.88563 14.29503 263 ft 31 kts 52°
2026-04-27 15:50 40.88698 14.29737 257 ft 34 kts 52°
2026-04-27 15:51 40.88840 14.29984 249 ft 35 kts 52°
2026-04-27 15:51 40.88962 14.30182 241 ft 8 kts 28°
2026-04-27 15:51 40.88999 14.30167 241 ft 11 kts 333°
2026-04-27 15:51 40.89066 14.30109 241 ft 9 kts 300°
2026-04-27 15:52 40.89039 14.29994 244 ft 35 kts 239°
2026-04-27 15:52 40.88784 14.29460 260 ft 101 kts 238°
2026-04-27 15:52 40.88306 14.28457 356 ft 147 kts 236°
2026-04-27 15:52 40.87712 14.27378 941 ft 143 kts 224°
2026-04-27 15:53 40.86852 14.26753 1526 ft 147 kts 197°
2026-04-27 15:53 40.85791 14.26666 2117 ft 164 kts 179°
2026-04-27 15:53 40.84574 14.26778 2637 ft 186 kts 175°
2026-04-27 15:53 40.83268 14.27056 3323 ft 194 kts 158°
2026-04-27 15:54 40.82190 14.28184 3782 ft 212 kts 127°
2026-04-27 15:54 40.81393 14.29902 3959 ft 224 kts 118°
2026-04-27 15:54 40.80689 14.31740 3991 ft 225 kts 114°
2026-04-27 15:54 40.80434 14.33750 3997 ft 225 kts 83°
2026-04-27 15:55 40.81054 14.35620 3998 ft 226 kts 49°
2026-04-27 15:55 40.81815 14.36599 3999 ft 227 kts 41°
2026-04-27 15:55 40.83439 14.38650 4255 ft 262 kts 45°
2026-04-27 15:55 40.84790 14.40366 4774 ft 274 kts 45°
2026-04-27 15:56 40.86188 14.42105 4973 ft 277 kts 44°
2026-04-27 15:56 40.87598 14.43840 4992 ft 277 kts 44°
2026-04-27 15:56 40.89016 14.45571 4987 ft 278 kts 43°
2026-04-27 15:56 40.90409 14.47263 4965 ft 264 kts 44°
2026-04-27 15:57 40.91728 14.48868 4852 ft 252 kts 43°
2026-04-27 15:57 40.93093 14.50242 4705 ft 242 kts 29°
2026-04-27 15:57 40.94652 14.50963 4503 ft 236 kts
2026-04-27 15:57 40.96234 14.50701 4234 ft 229 kts 330°
2026-04-27 15:58 40.97291 14.49234 3923 ft 222 kts 289°
2026-04-27 15:58 40.97337 14.47269 3610 ft 216 kts 248°
2026-04-27 15:58 40.96525 14.45662 3364 ft 211 kts 225°
2026-04-27 15:58 40.95639 14.44209 3251 ft 197 kts 238°
2026-04-27 15:59 40.94935 14.42696 3112 ft 183 kts 238°
2026-04-27 15:59 40.94302 14.41328 2992 ft 170 kts 239°
2026-04-27 15:59 40.93711 14.40027 2772 ft 163 kts 239°
2026-04-27 15:59 40.93138 14.38763 2475 ft 156 kts 239°
2026-04-27 16:00 40.92591 14.37545 2139 ft 151 kts 240°
2026-04-27 16:00 40.92239 14.36753 1880 ft 150 kts 240°
2026-04-27 16:00 40.91518 14.35195 1414 ft 146 kts 235°
2026-04-27 16:00 40.90994 14.34084 1118 ft 140 kts 234°
2026-04-27 16:01 40.90479 14.33033 838 ft 136 kts 233°
2026-04-27 16:01 40.89985 14.32003 617 ft 128 kts 235°
2026-04-27 16:01 40.89506 14.30995 423 ft 130 kts 237°
2026-04-27 16:01 40.89030 14.29985 259 ft 126 kts 235°
2026-04-27 16:02 40.88646 14.29175 268 ft 67 kts 238°
2026-04-27 16:02 40.88524 14.28912 274 ft 18 kts 238°
2026-04-27 16:02 40.88466 14.28784 277 ft 12 kts 238°
2026-04-27 16:02 40.88405 14.28769 281 ft 11 kts 155°
2026-04-27 16:03 40.88340 14.28824 278 ft 11 kts 146°
2026-04-27 16:03 40.88274 14.28881 279 ft 12 kts 149°
2026-04-27 16:03 40.88211 14.28890 279 ft 8 kts 217°
2026-04-27 16:03 40.88180 14.28839 281 ft 6 kts 233°
2026-04-27 16:04 40.88158 14.28801 282 ft 7 kts 232°
2026-04-27 16:04 40.88097 14.28698 284 ft 23 kts 232°
2026-04-27 16:04 40.87985 14.28512 294 ft 25 kts 222°
2026-04-27 16:04 40.87942 14.28371 296 ft 17 kts 278°
2026-04-27 16:05 40.87958 14.28209 297 ft 18 kts 277°
2026-04-27 16:05 40.87931 14.28077 299 ft 7 kts 217°
2026-04-27 16:05 40.87904 14.28093 300 ft 7 kts 141°
2026-04-27 16:05 40.87877 14.28121 299 ft 2 kts 141°
2026-04-27 16:06 40.87867 14.28132 299 ft 0 kts 141°